Regional Weather Roundup
Issued by NWS Wakefield, VA

Home | Current Version | Previous Version | Graphics & Text | Print | Product List | Glossary On
Versions: 1 2 3 4 5 6 7 8 9 10 11 12 13 14 15 16 17 18 19 20 21 22 23 24 25 26 27
000
ASUS41 KAKQ 252216
RWRAKQ

REGIONAL WEATHER ROUNDUP
NATIONAL WEATHER SERVICE WAKEFIELD VA
600 PM EDT SUN JUN 25 2017

Note: "fair" indicates few or no clouds below 12,000 feet with no
significant weather and/or obstructions to visibility. * = Denotes
station may not report precipitation (e.g., rain,snow,etc.),
thunder or fog.

VAZ042-051-052>054-056-252300-
NORTHERN VIRGINIA

CITY           SKY/WX    TMP DP  RH WIND       PRES   REMARKS
WASH NATIONAL  PTSUNNY   85  49  28 W15       29.97S
DULLES         MOSUNNY   82  45  27 NW17G24   29.99S
FORT BELVOIR   MOSUNNY   84  52  32 W10       29.97S
QUANTICO       MOSUNNY   86  53  32 NW7       29.98S
FREDERICKSBRG* PTSUNNY   84  58  41 NW3       29.96F
STAFFORD*      CLOUDY    79  63  56 CALM      30.02S
WARRENTON      MOSUNNY   86  44  23 NW9       29.99S
CULPEPER*      MOSUNNY   82  53  35 NW6       30.00S
MANASSAS*      SUNNY     82  54  36 NW8       29.99S
LEESBURG*      SUNNY    N/A N/A N/A NW14      30.01S
WINCHESTER     MOSUNNY   77  45  31 NW15      30.03R
FRONT ROYAL*   PTCLDY    79  43  27 W8        30.02S
LURAY*         CLEAR     81  43  26 W6G16     30.03S
$$

VAZ048-049-060>072-079>083-252300-
CENTRAL AND SOUTH CENTRAL VIRGINIA

CITY           SKY/WX    TMP DP  RH WIND       PRES   REMARKS
RICHMOND       PTSUNNY   83  58  42 W10       29.99S
CHESTERFIELD*  FAIR      81  61  50 W6        30.01R
PETERSBURG*    SUNNY     81  56  41 CALM      30.01S
HANOVER        PTSUNNY   81  59  47 SW7       30.01R
TAPPAHANNOCK*  PTSUNNY   81  56  43 S3        29.99S
QUINTON*       FAIR      81  62  50 CALM      29.98S
CHARLOTTSVILLE PTSUNNY   83  53  35 VRB3      30.01R
GORDONSVILLE*  CLOUDY    83  53  35 SW6       29.99F
ORANGE*        PTSUNNY   81  55  41 CALM      29.99S
LOUISA*        CLOUDY    82  63  51 W3        29.99S
BUMPASS*       FAIR      79  64  59 SW3       29.99S
FARMVILLE*     CLOUDY    78  56  46 SW5       30.02R
CREWE*         FAIR      78  51  38 NW5       30.02S
FORT PICKETT*  FAIR     N/A N/A N/A W6        30.02S
CHASE CITY*    FAIR      75  63  64 W3        30.04F
CLARKSVILLE*   FAIR      77  63  61 CALM      30.04S
SOUTH HILL*    CLOUDY    80  64  57 CALM      30.08F
LAWRENCEVILLE* FAIR      80  60  50 CALM      30.02S
EMPORIA*       SUNNY     81  59  47 W6        30.02F
$$

VAZ088>098-252300-
SOUTHEAST VIRGINIA

CITY           SKY/WX    TMP DP  RH WIND       PRES   REMARKS
NORFOLK        SUNNY     84  62  47 NE6       29.98F
VIRGINIA BEACH MOSUNNY   85  63  47 CALM      29.98S
NORFOLK NAVAL  MOSUNNY   85  61  44 E6        30.00S
WEST POINT*    SUNNY     85  58  40 W7        29.99S
SALUDA*        FAIR      82  66  57 E7        29.98S
NEWPORT NEWS   SUNNY     85  62  46 NW9       29.99S
LANGLEY AFB    MOSUNNY   82  65  57 E8        29.98F
FORT EUSTIS    SUNNY     89  65  46 NW6       29.97S
WILLIAMSBURG*  MOSUNNY   88  63  42 CALM      30.00R
HR EXEC AP*    FAIR      84  66  54 NW3         N/A
FRANKLIN*      SUNNY     84  61  45 W3        30.00S
US460-WAKEFLD  MOSUNNY   84  63  49 SW5       29.99F
$$

VAZ020-022-025-037-045-252300-
WEST CENTRAL AND SOUTHWEST VIRGINIA

CITY           SKY/WX    TMP DP  RH WIND       PRES   REMARKS
STAUNTON*      CLOUDY    78  44  29 NW10G18   30.07R
WAYNESBORO*    CLOUDY    78  47  33 W7        30.06S
HOT SPRINGS VA SUNNY     66  30  26 W12G21    30.17F
LYNCHBURG      CLOUDY    76  56  49 CALM      30.06S
DANVILLE       CLOUDY    77  62  59 W5        30.05F
SOUTH BOSTON*  FAIR      77  62  59 CALM      30.04S
MARTINSVILLE   CLOUDY    75  62  64 CALM      30.09F
ROANOKE        MOSUNNY   78  46  32 NW14      30.09F
BLACKSBURG     SUNNY     73  47  39 NW7       30.15F
DUBLIN*        MOSUNNY   75  38  26 NW10G16   30.14F
MARION*        SUNNY     73  42  32 W16G22    30.18F
HILLSVILLE*    MOSUNNY   71  45  38 NW10G16   30.14F
RICHLANDS*     FAIR      70  47  44 NW9G18    30.19S
WISE*          MOSUNNY   70  45  40 NW6       30.21S
ABINGDON*      MOSUNNY   76  48  37 N5        30.16F
$$

MDZ021>025-VAZ099-100-252300-
SOUTHERN MARYLAND AND THE DELMARVA PENINSULA

CITY           SKY/WX    TMP DP  RH WIND       PRES   REMARKS
PATUXENT RIVER CLOUDY    82  60  47 W9        29.97S
BAY BRIDGE APT MOSUNNY   84  59  42 SW5       29.96S
LEONARDTOWN    PTSUNNY   81  59  47 SW5       29.99S
DOVER          MOSUNNY   83  62  48 SW8       29.94S
GEORGETOWN     MOSUNNY   84  58  40 W7        29.96F
EASTON         MOSUNNY   84  59  42 W5        30.00S
CAMBRIDGE      SUNNY     84  59  42 W6        29.96F
SALISBURY      MOSUNNY   83  58  42 W6        29.97S
OCEAN CITY     MOSUNNY   75  65  70 S8        29.98S
WALLOPS ISLAND SUNNY     80  68  66 S13       29.98S
ACCOMACK*      SUNNY     85  58  39 NW5       29.98S
$$

NCZ012>017-030>032-252300-
NORTH CENTRAL AND EASTERN NORTH CAROLINA

CITY           SKY/WX    TMP DP  RH WIND       PRES   REMARKS
ROANOKE RAPIDS FAIR      82  64  54 W8        30.01F
RALEIGH        CLOUDY    80  64  58 NW6       30.05S
ELIZABETH CITY PTSUNNY   83  74  74 NE9       29.99S
AHOSKIE*         N/A     82  65  57 CALM      30.01S
EDENTON*       SUNNY     88  68  51 CALM      30.00F
CURRITUCK*     MOSUNNY   82  70  65 NE7       30.00S
KILL DEVIL HLS PTSUNNY   82  71  68 CALM      29.98S
MANTEO         NOT AVBL
CAPE HATTERAS  CLOUDY    82  75  79 SW8       30.00F
TARBORO*       NOT AVBL
GOLDSBORO      NOT AVBL
WASHINGTON     SUNNY    N/A N/A N/A NW5       30.01S
GREENVILLE     PTSUNNY   88  68  51 N8        30.03S
NEW BERN       CLOUDY    85  72  65 NW6       30.02R
WILMINGTON     CLOUDY    82  75  79 SW10      30.02R
$$

VAZ048-252300-
ELSEWHERE

CITY           SKY/WX    TMP DP  RH WIND       PRES   REMARKS
HARRISBURG PA  PTSUNNY   79  55  43 W9        29.94S
BALTIMORE      MOSUNNY   83  49  30 W15G22    29.96S
ANNAPOLIS      SUNNY     82  54  37 NW10      29.95S
ANDREWS AFB    MOSUNNY   84  50  30 W12       29.97S
PHILADELPHIA   PTSUNNY   84  56  38 W14G20    29.93F
HENDERSON NC   PTSUNNY   75  60  58 NW3       30.04F
GREENSBORO     CLOUDY    76  63  64 NW6       30.07F
ROCKY MOUNT    MOSUNNY   83  64  52 W6        30.03S
$$

VAZ100-252300-
MARINE

STATION/POSITION TIME  TEMP    WIND        PRES    WAVE   SWELL
                       AIR SEA DIR/SP/G            HT/PER HT/PER
                 (UTC) (F)     (DEG/KT/KT) (MB)    (FT/S) (FT/S)
BRANDYWINE LGT   2148          180/ 12/ 13 1014.7F
CAPE MAY NJ      2142   77 72  150/  8/  9 1014.2F
LEWES DE         2148          170/  9/ 11 1014.5S
15NM E FENWICK I 2150   72 70  140/  8/  8 1015.2F   3/ 7   3/ 7
OCEAN-CITY-INLET 2142   72 76  210/  5/  7 1015.3F
WACHAPREAGUE VA  2142   86 86  250/  2/  5 1015.0F
THOMAS POINT MD  2200   81 78  170/  7/  8   N/A
GOOSES REEF MD   2200   82 79  180/  4/  8 1015.4
COVE POINT MD    2142   80     180/ 10/ 12 1015.4F
SOLOMONS ISLAND  2148          230/  9/ 11   N/A
BISHOPS HEAD MD  2142   81 84  220/  6/  7 1015.1F
PINEY POINT MD   2148          360/  3/  3   N/A
POTOMAC MD       2200   81 81  340/  2/  2 1014.1    0
CAMBRIDGE MD     2148                      1015.5F
LEWISETTA VA     2142   81 80   CALM  /  2 1015.0S
RAPPAHANNOCK LGT 2148           50/  4/  5 1015.9F
STINGRAY PT      2150   81     120/  6/  6 1016.2R
YORK RVR RNG VA  2142   80     100/  8/  9 1015.5F
YORKTOWN VA      2142   81 80   90/  6/  8 1014.8F
JAMESTOWN VA     2200   84 84  290/ 10/ 14   N/A     0
DOMINION TERM VA 2142   83     100/  2/  6 1015.4F
KIPTOPEKE VA     2148          340/  2/  4   N/A
CHES BAY BRIDGE  2136   79 77   60/  3/  5 1015.4S
CAPE HENRY VA    2136   81     350/  4/  5   N/A
WILLOUBY STN VA  2136   79      80/  7/  7 1015.4F
S CRANEY ISL VA  2142   83      50/  3/  5 1015.1F
CAPE HENRY BUOY  2200      75                N/A     2/ 6
1ST LANDING BUOY 2200   81 77              1015.2    1/ 3
CAPE CHARLES BUO 2151      71                N/A     2/ 6
64NM E OF VA BCH 2150   75 76  210/  6/  6 1015.9F   3/ 6   3/ 6
DUCK PIER NC     2136   77 64  100/ 10/ 10 1015.1S
44100 DUCK FRF   2135      75                N/A     2/ 6
OREGON INLET NC  2136   82 82  180/  5/  6 1015.4F
HATTERAS NC      2136   80 78  210/  6/  9 1015.7F
DIAMOND SHLS NC  2150   79 81  240/  8/  8 1015.8F   3/ 6   3/ 6
CAPE LOOKOUT NC  2200   80     230/  7/ 10 1015.8F
$$




USA.gov is the U.S. government's official web portal to all federal, state and local government web resources and services.